Home   Weather   Kalisz   Past weeks

Flag for Poland Past Weather in Kalisz, Poland — Yesterday and Last 2 Weeks

49 °F


Feels Like: 49 °F
Forecast: 42 / 48 °F
Wind: 1 mph from South

Location: Kalisz

Current Time: Oct 25, 2016 at 7:08:34 AM

Latest Report: Oct 25, 2016 at 5:00 AM

Visibility: 1 mi

Pressure: 29.99 "Hg

Humidity: 100%

Dew Point: 49 °F

Location of KaliszLocation

Past Weather in Kalisz — Graph


Kalisz Temperature Yesterday

Maximum temperature yesterday: 53 °F (at 3:00 PM)
Minimum temperature yesterday: 43 °F (at 5:00 AM)
Average temperature yesterday: 48 °F

High & Low Weather Summary for the Past Weeks

High55 °F (Oct 18, 1:00 PM)100% (Oct 10, 6:00 AM)30.44 "Hg (Oct 10, 6:00 AM)
Low35 °F (Oct 14, 6:00 AM)60% (Oct 14, 2:00 PM)29.95 "Hg (Oct 21, 5:00 PM)
Average45 °F92%30.14 "Hg
* Reported Oct 10 5:00 AM — Oct 25 5:00 AM, Kalisz, Weather by CustomWeather, © 2016

Note: Actual official high and low records may vary slightly from our data, if they occured in-between our weather recording intervals... More about our weather records


Kalisz Weather History for the Previous 24 Hours

Scroll right to see more
Time TempWeatherWind HumidityBarometerVisibility
5:00 AM
Tue, Oct 25
49 °FFog.1 mph100%29.99 "Hg1 mi
4:00 AM49 °FFog.1 mph100%29.99 "Hg1 mi
3:00 AM49 °FFog.3 mph100%29.99 "Hg1 mi
2:00 AM49 °FFog.2 mph100%30.01 "Hg1 mi
1:00 AM49 °FOvercast.2 mph100%30.01 "Hg1 mi
12:00 AM49 °FLight rain. Overcast.3 mph100%30.02 "Hg2 mi
11:00 PM
Mon, Oct 24
49 °FLight rain. Overcast.3 mph99%30.03 "Hg1 mi
10:00 PM49 °FLight rain. Overcast.3 mph97%30.05 "Hg2 mi
9:00 PM49 °FLight rain. Overcast.3 mph95%30.06 "Hg2 mi
8:00 PM50 °FLight rain. Overcast.3 mph90%30.05 "Hg2 mi
7:00 PM51 °FFog.2 mph87%30.07 "Hg2 mi
6:00 PM51 °FFog.2 mph87%30.07 "Hg2 mi
5:00 PM52 °FFog.2 mph81%30.08 "Hg2 mi
4:00 PM53 °FFog.2 mph79%30.07 "Hg5 mi
3:00 PM53 °FFog.3 mph78%30.08 "Hg5 mi
1:00 PM48 °FFog.1 mph91%30.09 "Hg4 mi
12:00 PM47 °FFog.3 mph94%30.07 "Hg3 mi
11:00 AM46 °FOvercast.3 mph96%30.09 "Hg2 mi
10:00 AM45 °FLight rain. Overcast.3 mph96%30.08 "Hg2 mi
9:00 AM44 °FLight rain. Overcast.3 mph96%30.08 "Hg3 mi
8:00 AM44 °FOvercast.3 mph93%30.07 "Hg3 mi
7:00 AM44 °FLight rain. Overcast.3 mph94%30.08 "Hg3 mi
Weather by CustomWeather, © 2016

See weather overviewHow to use our weather pages